Regional Weather Roundup
Issued by NWS Newport/Morehead, NC

Current Version | Previous Version | Text Only | Print | Product List | Glossary On
Versions: 1 2 3 4 5 6 7 8 9 10 11 12 13 14 15 16 17 18 19 20 21 22 23 24 25 26 27 28 29 30 31 32 33 34 35 36 37 38 39 40 41 42 43 44 45 46 47 48 49 50
000 ASUS42 KMHX 301713 RWRMHX WEATHER ROUNDUP FOR EASTERN NORTH CAROLINA NATIONAL WEATHER SERVICE NEWPORT/MOREHEAD CITY NC 100 PM EDT TUE JUN 30 2015 NOTE: "FAIR" INDICATES FEW OR NO CLOUDS BELOW 12,000 FEET WITH NO SIGNIFICANT WEATHER AND/OR OBSTRUCTIONS TO VISIBILITY NCZ015>017-031-032-045>047-102-103-301800- NORTH COAST CITY SKY/WX TMP DP RH WIND PRES REMARKS EDENTON N/A 87 68 53 SW10 29.95F ELIZABETH CITY SUNNY 87 66 49 S14 29.95F KITTY HAWK MOSUNNY 92 69 47 S9 29.95F MANTEO MOSUNNY 85 72 63 S14 29.96F $$ NCZ045>047-081-094-103-104-301800- CENTRAL COAST CITY SKY/WX TMP DP RH WIND PRES REMARKS FRISCO SUNNY 83 73 72 SW9 29.99F SWANQUARTER N/A 88 N/A N/A S5 29.94S $$ NCZ095-097-098-100-101-301800- SOUTHERN COAST CITY SKY/WX TMP DP RH WIND PRES REMARKS BEAUFORT SUNNY 84 73 69 S10 29.98F CEDAR ISLAND N/A 90 N/A N/A W2G10 30.03S JACKSONVILLE SUNNY 89 64 43 S6 29.97F PINEY ISLAND SUNNY N/A N/A N/A W6 29.97F WILMINGTON SUNNY 89 66 46 SW10 29.99F $$ NCZ011>013-027>030-043-044-078>080-089-090>093-098-301800- COASTAL PLAIN CITY SKY/WX TMP DP RH WIND PRES REMARKS AHOSKIE SUNNY 87 67 52 S8 29.93F CLINTON SUNNY 88 71 56 SW7 29.97F ELIZABETHTOWN SUNNY 89 66 47 S9 29.98F GOLDSBORO SUNNY 90 67 47 S13 29.93F GREENVILLE SUNNY 90 68 48 SW10G16 29.97F HAVELOCK MOSUNNY 90 64 42 SW10 29.98F KENANSVILLE SUNNY 88 66 47 S3 29.98F KINSTON SUNNY 90 66 45 S10 29.97F NEW BERN SUNNY 89 65 44 W10 29.98F RICHLANDS SUNNY 91 64 40 SW9 29.98S ROCKY MOUNT SUNNY 91 66 43 S9G16 29.94F WASHINGTON SUNNY 88 67 48 SW9 29.96F WHITEVILLE SUNNY 88 68 51 SW9 29.98F $$ AMZ130-135-150-152-154-156-158-170-250-252-270-ANZ085-086-088-633-658-670-301800- MARINE OBSERVATIONS STATION/POSITION TIME TEMP WIND PRES WAVE SWELL AIR SEA DIR/SP/G HT/PER HT/PER (UTC) (F) (DEG/KT/KT) (MB) (FT/S) (FT/S) CHESAPEAKE LIGHT 1700 78 170/ 16/ 17 1014.3 64 E VA BEACH 1650 77 76 160/ 10/ 12 1014.7 3/ 8 3/ 8 DUCK 1600 79 74 140/ 7/ 9 1013.8 2 E DUCK 1611 76 N/A 2/ 8 OREGON INLET 1600 81 79 180/ 13/ 15 1015.1 13E OREGON INLT 1700 78 N/A 3/ 8 HATTERAS CG 1600 82 81 210/ 9/ 11 1015.6 DIAMOND BUOY 1650 81 83 230/ 12/ 14 1015.6 3/ 7 3/ 7 CAPE LOOKOUT 1700 82 230/ 9/ 12 1015.4 BEAUFORT LAB 1600 83 81 210/ 6/ 11 1015.1 30 SE NEW RVR IN NOT AVBL 27 SE WRIGHTSVLE 1600 81 240/ 10/ 12 N/A 5 SE WRIGHTSVLE NOT AVBL 225 S CAPE HAT 1650 76 79 240/ 12/ 14 1019.2 6/ 7 5/ 7 41 SE CHARLESTON 1650 81 82 230/ 10/ 12 1017.0 4/ 8 3/ 8 $$

USA.gov is the U.S. government's official web portal to all federal, state and local government web resources and services.